RPB7437 MDPC-SKRG

Flight info

Callsign RPB7437
Flight time 2h 19m
Altitude 37000
Route MELLA2T MELLA DCT KBEZA L455 SCAPA/N0465F380 DCT LUCAS UM576 PJG UL325 ENPUT DCT CUC UW26 DIPRA DIPRA3B
Aircraft B738/M-SDE2E3FGHIRWXY/LB1

Departure

Time 2026-04-26 22:34
Airport Punta Cana International Airport (MDPC)

Arrival

Time 2026-04-27 00:54
Airport Jose Maria Córdova International Airport (SKRG)
Time Latitude Longitude Altitude Speed Heading
2026-04-26 22:06 18.56383 -68.36395 50 ft 0 kts 175°
2026-04-26 22:22 18.56389 -68.36395 50 ft 3 kts 176°
2026-04-26 22:23 18.56409 -68.36396 45 ft 3 kts 185°
2026-04-26 22:23 18.56430 -68.36393 50 ft 3 kts 195°
2026-04-26 22:23 18.56448 -68.36386 46 ft 3 kts 211°
2026-04-26 22:23 18.56463 -68.36373 47 ft 3 kts 237°
2026-04-26 22:24 18.56469 -68.36360 46 ft 1 kts 266°
2026-04-26 22:24 18.56470 -68.36358 46 ft 1 kts 266°
2026-04-26 22:27 18.56470 -68.36359 46 ft 1 kts 266°
2026-04-26 22:27 18.56470 -68.36375 47 ft 4 kts 278°
2026-04-26 22:27 18.56494 -68.36394 48 ft 5 kts 346°
2026-04-26 22:27 18.56541 -68.36408 50 ft 8 kts 329°
2026-04-26 22:28 18.56552 -68.36469 50 ft 10 kts 265°
2026-04-26 22:28 18.56545 -68.36552 50 ft 13 kts 264°
2026-04-26 22:28 18.56536 -68.36653 51 ft 15 kts 265°
2026-04-26 22:28 18.56526 -68.36771 51 ft 17 kts 264°
2026-04-26 22:29 18.56515 -68.36901 51 ft 19 kts 264°
2026-04-26 22:29 18.56502 -68.37048 52 ft 21 kts 264°
2026-04-26 22:29 18.56489 -68.37207 52 ft 22 kts 265°
2026-04-26 22:29 18.56474 -68.37369 53 ft 22 kts 264°
2026-04-26 22:30 18.56459 -68.37526 53 ft 21 kts 265°
2026-04-26 22:30 18.56446 -68.37679 50 ft 21 kts 265°
2026-04-26 22:30 18.56492 -68.37786 54 ft 17 kts 348°
2026-04-26 22:30 18.56504 -68.37787 54 ft 0 kts 353°
2026-04-26 22:31 18.56509 -68.37788 54 ft 2 kts 353°
2026-04-26 22:32 18.56532 -68.37791 53 ft 5 kts 353°
2026-04-26 22:32 18.56583 -68.37796 49 ft 10 kts 355°
2026-04-26 22:32 18.56618 -68.37772 51 ft 4 kts 80°
2026-04-26 22:32 18.56618 -68.37761 53 ft 0 kts 83°
2026-04-26 22:33 18.56622 -68.37724 53 ft 24 kts 83°
2026-04-26 22:34 18.56663 -68.37238 52 ft 107 kts 84°
2026-04-26 22:34 18.56750 -68.36198 65 ft 174 kts 88°
2026-04-26 22:34 18.56869 -68.34807 571 ft 201 kts 89°
2026-04-26 22:34 18.56988 -68.33302 1361 ft 208 kts 87°
2026-04-26 22:35 18.57106 -68.31779 2187 ft 206 kts 87°
2026-04-26 22:35 18.57202 -68.30330 2837 ft 194 kts 97°
2026-04-26 22:35 18.56685 -68.29048 3402 ft 200 kts 134°
2026-04-26 22:35 18.55637 -68.27942 3686 ft 227 kts 139°
2026-04-26 22:36 18.54414 -68.26774 4053 ft 246 kts 140°
2026-04-26 22:36 18.53073 -68.25494 4504 ft 267 kts 140°
2026-04-26 22:36 18.51641 -68.24203 4905 ft 270 kts 143°
2026-04-26 22:36 18.50150 -68.23007 4945 ft 272 kts 144°
2026-04-26 22:37 18.48624 -68.21798 4975 ft 276 kts 144°
2026-04-26 22:37 18.47092 -68.20589 5014 ft 276 kts 146°
2026-04-26 22:37 18.45528 -68.19396 5645 ft 277 kts 146°
2026-04-26 22:37 18.43974 -68.18220 6531 ft 280 kts 146°
2026-04-26 22:38 18.42378 -68.17012 7346 ft 284 kts 146°
2026-04-26 22:38 18.40765 -68.15789 8167 ft 288 kts 146°
2026-04-26 22:38 18.39129 -68.14547 8979 ft 292 kts 146°
2026-04-26 22:38 18.37469 -68.13285 9775 ft 297 kts 146°
2026-04-26 22:39 18.35770 -68.11994 10399 ft 308 kts 146°
2026-04-26 22:39 18.33962 -68.10622 10585 ft 333 kts 146°
2026-04-26 22:39 18.32010 -68.09139 10757 ft 356 kts 146°
2026-04-26 22:39 18.29945 -68.07568 10937 ft 376 kts 146°
2026-04-26 22:40 18.27789 -68.05925 11379 ft 385 kts 146°
2026-04-26 22:40 18.25637 -68.04286 11991 ft 388 kts 146°
2026-04-26 22:40 18.23439 -68.02614 12635 ft 390 kts 146°
2026-04-26 22:40 18.21194 -68.00970 13232 ft 393 kts 151°
2026-04-26 22:41 18.18743 -67.99683 13807 ft 394 kts 161°
2026-04-26 22:41 18.16119 -67.98846 14339 ft 395 kts 168°
2026-04-26 22:41 18.13446 -67.98141 14859 ft 397 kts 168°
2026-04-26 22:41 18.10781 -67.97459 15368 ft 400 kts 169°
2026-04-26 22:42 18.08065 -67.96765 15875 ft 403 kts 169°
2026-04-26 22:42 18.05330 -67.96060 16374 ft 406 kts 169°
2026-04-26 22:42 18.02574 -67.95340 16873 ft 409 kts 168°
2026-04-26 22:42 17.99800 -67.94610 17368 ft 412 kts 168°
2026-04-26 22:43 17.97009 -67.93871 17843 ft 415 kts 168°
2026-04-26 22:43 17.94193 -67.93122 18295 ft 418 kts 168°
2026-04-26 22:43 17.91357 -67.92367 18694 ft 420 kts 168°
2026-04-26 22:43 17.88554 -67.91621 19084 ft 423 kts 169°
2026-04-26 22:44 17.85684 -67.90856 19477 ft 426 kts 169°
2026-04-26 22:44 17.82804 -67.90090 19849 ft 429 kts 168°
2026-04-26 22:44 17.79897 -67.89316 20222 ft 431 kts 169°
2026-04-26 22:44 17.76977 -67.88540 20589 ft 434 kts 169°
2026-04-26 22:45 17.74031 -67.87757 20946 ft 437 kts 169°
2026-04-26 22:45 17.71073 -67.86971 21299 ft 439 kts 169°
2026-04-26 22:45 17.68139 -67.86191 21641 ft 442 kts 169°
2026-04-26 22:45 17.65148 -67.85397 21974 ft 445 kts 169°
2026-04-26 22:46 17.62138 -67.84598 22307 ft 447 kts 169°
2026-04-26 22:46 17.59118 -67.83796 22629 ft 449 kts 169°
2026-04-26 22:46 17.56070 -67.82988 22947 ft 452 kts 169°
2026-04-26 22:46 17.53014 -67.82178 23237 ft 455 kts 169°
2026-04-26 22:47 17.49929 -67.81360 23515 ft 457 kts 169°
2026-04-26 22:47 17.46832 -67.80539 23774 ft 459 kts 169°
2026-04-26 22:47 17.43759 -67.79725 24034 ft 461 kts 169°
2026-04-26 22:47 17.40640 -67.78899 24284 ft 462 kts 169°
2026-04-26 22:48 17.37513 -67.78071 24533 ft 464 kts 169°
2026-04-26 22:48 17.34376 -67.77241 24783 ft 465 kts 169°
2026-04-26 22:48 17.31226 -67.76408 25024 ft 467 kts 169°
2026-04-26 22:48 17.28075 -67.75574 25256 ft 468 kts 169°
2026-04-26 22:49 17.24911 -67.74738 25490 ft 470 kts 169°
2026-04-26 22:49 17.21734 -67.73898 25723 ft 471 kts 169°
2026-04-26 22:49 17.18550 -67.73057 25941 ft 472 kts 169°
2026-04-26 22:49 17.15398 -67.72225 26159 ft 474 kts 169°
2026-04-26 22:50 17.12190 -67.71378 26372 ft 475 kts 169°
2026-04-26 22:50 17.08978 -67.70531 26590 ft 476 kts 169°
2026-04-26 22:50 17.05762 -67.69682 26800 ft 477 kts 169°
2026-04-26 22:50 17.02519 -67.68827 26994 ft 479 kts 169°
2026-04-26 22:51 16.99284 -67.67974 27189 ft 480 kts 169°
2026-04-26 22:51 16.96041 -67.67120 27379 ft 481 kts 170°
2026-04-26 22:51 16.92828 -67.66274 27566 ft 482 kts 170°
2026-04-26 22:51 16.89563 -67.65414 27748 ft 483 kts 170°
2026-04-26 22:52 16.86293 -67.64553 27933 ft 484 kts 170°
2026-04-26 22:52 16.83031 -67.63694 28170 ft 484 kts 170°
2026-04-26 22:52 16.79766 -67.62835 28465 ft 482 kts 170°
2026-04-26 22:52 16.76515 -67.61979 28773 ft 481 kts 170°
2026-04-26 22:53 16.73268 -67.61125 29064 ft 480 kts 170°
2026-04-26 22:53 16.70070 -67.60285 29312 ft 479 kts 170°
2026-04-26 22:53 16.66835 -67.59435 29581 ft 479 kts 170°
2026-04-26 22:53 16.63604 -67.58587 29870 ft 478 kts 170°
2026-04-26 22:54 16.60369 -67.57738 30164 ft 476 kts 170°
2026-04-26 22:54 16.57143 -67.56891 30447 ft 475 kts 170°
2026-04-26 22:54 16.53991 -67.56064 30723 ft 473 kts 171°
2026-04-26 22:54 16.50799 -67.55227 31010 ft 471 kts 171°
2026-04-26 22:55 16.47623 -67.54394 31309 ft 470 kts 171°
2026-04-26 22:55 16.44459 -67.53565 31622 ft 468 kts 171°
2026-04-26 22:55 16.41310 -67.52740 31940 ft 466 kts 171°
2026-04-26 22:55 16.38169 -67.51917 32268 ft 464 kts 171°
2026-04-26 22:56 16.35034 -67.51096 32579 ft 462 kts 171°
2026-04-26 22:56 16.31917 -67.50281 32876 ft 461 kts 171°
2026-04-26 22:56 16.28810 -67.49468 33195 ft 459 kts 171°
2026-04-26 22:56 16.25717 -67.48659 33527 ft 457 kts 171°
2026-04-26 22:57 16.22662 -67.47901 33834 ft 453 kts 175°
2026-04-26 22:57 16.19550 -67.47507 34121 ft 446 kts 182°
2026-04-26 22:57 16.16466 -67.47597 34365 ft 441 kts 188°
2026-04-26 22:57 16.13408 -67.47837 34593 ft 440 kts 188°
2026-04-26 22:58 16.10335 -67.48087 34826 ft 440 kts 188°
2026-04-26 22:58 16.07325 -67.48323 35075 ft 439 kts 188°
2026-04-26 22:58 16.04272 -67.48550 35343 ft 438 kts 188°
2026-04-26 22:58 16.01231 -67.48766 35592 ft 437 kts 188°
2026-04-26 22:59 15.98198 -67.48977 35822 ft 436 kts 188°
2026-04-26 22:59 15.95170 -67.49186 36067 ft 435 kts 188°
2026-04-26 22:59 15.92148 -67.49394 36319 ft 434 kts 188°
2026-04-26 22:59 15.89135 -67.49602 36545 ft 433 kts 188°
2026-04-26 23:00 15.86165 -67.49808 36764 ft 432 kts 188°
2026-04-26 23:00 15.83163 -67.50029 36961 ft 432 kts 189°
2026-04-26 23:00 15.80171 -67.50395 36950 ft 434 kts 192°
2026-04-26 23:01 15.74189 -67.51310 36960 ft 433 kts 192°
2026-04-26 23:01 15.71225 -67.51781 37062 ft 428 kts 192°
2026-04-26 23:01 15.68283 -67.52244 37183 ft 426 kts 192°
2026-04-26 23:01 15.65337 -67.52702 37313 ft 427 kts 192°
2026-04-26 23:02 15.62393 -67.53154 37441 ft 428 kts 192°
2026-04-26 23:02 15.59449 -67.53602 37566 ft 429 kts 192°
2026-04-26 23:02 15.56488 -67.54049 37693 ft 430 kts 192°
2026-04-26 23:02 15.53551 -67.54491 37826 ft 430 kts 192°
2026-04-26 23:03 15.50595 -67.54934 37926 ft 428 kts 192°
2026-04-26 23:03 15.44701 -67.55818 37961 ft 428 kts 192°
2026-04-26 23:04 15.38790 -67.56705 37964 ft 430 kts 192°
2026-04-26 23:04 15.32837 -67.57599 37962 ft 432 kts 192°
2026-04-26 23:05 15.26905 -67.58488 37959 ft 433 kts 192°
2026-04-26 23:05 15.20925 -67.59383 37958 ft 434 kts 192°
2026-04-26 23:06 15.14977 -67.60273 37962 ft 434 kts 192°
2026-04-26 23:06 15.08977 -67.61171 37954 ft 434 kts 192°
2026-04-26 23:07 15.04001 -67.61915 37953 ft 434 kts 192°
2026-04-26 23:07 14.98003 -67.62811 37957 ft 434 kts 192°
2026-04-26 23:08 14.92052 -67.63700 37955 ft 434 kts 192°
2026-04-26 23:08 14.86074 -67.64593 37955 ft 433 kts 192°
2026-04-26 23:09 14.80111 -67.65482 37955 ft 433 kts 192°
2026-04-26 23:09 14.74180 -67.66367 37950 ft 433 kts 192°
2026-04-26 23:10 14.68210 -67.67257 37953 ft 432 kts 192°
2026-04-26 23:10 14.62243 -67.68146 37954 ft 432 kts 192°
2026-04-26 23:11 14.56295 -67.69031 37953 ft 432 kts 192°
2026-04-26 23:11 14.50373 -67.69913 37951 ft 432 kts 192°
2026-04-26 23:12 14.44420 -67.70798 37951 ft 432 kts 191°
2026-04-26 23:12 14.38461 -67.71684 37951 ft 432 kts 191°
2026-04-26 23:13 14.32496 -67.72570 37949 ft 432 kts 191°
2026-04-26 23:13 14.26561 -67.73451 37950 ft 433 kts 191°
2026-04-26 23:14 14.20596 -67.74337 37951 ft 433 kts 191°
2026-04-26 23:14 14.14635 -67.75221 37948 ft 433 kts 191°
2026-04-26 23:15 14.08707 -67.76100 37947 ft 433 kts 191°
2026-04-26 23:15 14.02729 -67.76985 37946 ft 433 kts 191°
2026-04-26 23:16 13.96749 -67.77871 37947 ft 433 kts 191°
2026-04-26 23:16 13.90821 -67.78748 37948 ft 433 kts 191°
2026-04-26 23:17 13.84857 -67.79631 37945 ft 432 kts 191°
2026-04-26 23:17 13.78896 -67.80512 37942 ft 432 kts 191°
2026-04-26 23:18 13.72975 -67.81387 37944 ft 432 kts 190°
2026-04-26 23:18 13.67023 -67.82266 37942 ft 431 kts 190°
2026-04-26 23:19 13.61081 -67.83144 37943 ft 431 kts 190°
2026-04-26 23:19 13.55140 -67.84021 37942 ft 431 kts 190°
2026-04-26 23:20 13.49196 -67.84897 37940 ft 431 kts 190°
2026-04-26 23:20 13.43263 -67.85772 37938 ft 431 kts 190°
2026-04-26 23:21 13.37358 -67.86642 37940 ft 431 kts 190°
2026-04-26 23:21 13.31505 -67.87877 37938 ft 428 kts 202°
2026-04-26 23:22 13.26341 -67.90881 37929 ft 428 kts 220°
2026-04-26 23:22 13.22080 -67.95150 37938 ft 429 kts 225°
2026-04-26 23:23 13.17964 -67.99541 37935 ft 429 kts 225°
2026-04-26 23:23 13.13784 -68.03954 37937 ft 430 kts 224°
2026-04-26 23:24 13.09609 -68.08312 37936 ft 430 kts 224°
2026-04-26 23:24 13.05400 -68.12688 37936 ft 431 kts 224°
2026-04-26 23:25 13.01177 -68.17076 37938 ft 432 kts 224°
2026-04-26 23:25 12.96948 -68.21469 37931 ft 432 kts 224°
2026-04-26 23:26 12.92744 -68.25834 37935 ft 433 kts 224°
2026-04-26 23:26 12.88502 -68.30237 37931 ft 433 kts 224°
2026-04-26 23:27 12.84288 -68.34611 37935 ft 433 kts 224°
2026-04-26 23:27 12.80043 -68.39009 37933 ft 434 kts 224°
2026-04-26 23:28 12.75786 -68.43408 37931 ft 434 kts 224°
2026-04-26 23:28 12.71559 -68.47774 37929 ft 434 kts 224°
2026-04-26 23:29 12.67300 -68.52172 37929 ft 434 kts 224°
2026-04-26 23:29 12.63039 -68.56571 37926 ft 434 kts 224°
2026-04-26 23:30 12.58808 -68.60937 37926 ft 434 kts 224°
2026-04-26 23:30 12.54554 -68.65325 37923 ft 434 kts 224°
2026-04-26 23:31 12.50290 -68.69721 37924 ft 434 kts 224°
2026-04-26 23:31 12.46028 -68.74113 37928 ft 435 kts 224°
2026-04-26 23:32 12.41758 -68.78510 37926 ft 435 kts 224°
2026-04-26 23:32 12.37487 -68.82908 37933 ft 436 kts 224°
2026-04-26 23:33 12.33236 -68.87282 37937 ft 436 kts 224°
2026-04-26 23:33 12.28949 -68.91691 37939 ft 437 kts 223°
2026-04-26 23:34 12.24663 -68.96098 37938 ft 437 kts 223°
2026-04-26 23:34 12.20390 -69.00489 37940 ft 438 kts 223°
2026-04-26 23:35 12.15854 -69.04650 37944 ft 437 kts 219°
2026-04-26 23:35 12.11197 -69.08622 37935 ft 437 kts 218°
2026-04-26 23:36 12.06535 -69.12622 37932 ft 438 kts 219°
2026-04-26 23:36 12.01880 -69.16653 37926 ft 438 kts 219°
2026-04-26 23:37 11.97223 -69.20693 37926 ft 439 kts 219°
2026-04-26 23:37 11.92569 -69.24725 37922 ft 439 kts 219°
2026-04-26 23:38 11.87913 -69.28764 37921 ft 439 kts 219°
2026-04-26 23:38 11.83285 -69.32788 37921 ft 439 kts 219°
2026-04-26 23:39 11.78628 -69.36838 37922 ft 439 kts 219°
2026-04-26 23:39 11.73970 -69.40886 37926 ft 439 kts 219°
2026-04-26 23:40 11.69330 -69.44917 37925 ft 439 kts 219°
2026-04-26 23:40 11.64660 -69.48970 37928 ft 440 kts 219°
2026-04-26 23:41 11.60027 -69.52990 37931 ft 440 kts 219°
2026-04-26 23:41 11.55366 -69.57034 37935 ft 439 kts 219°
2026-04-26 23:42 11.50699 -69.61080 37941 ft 439 kts 219°
2026-04-26 23:42 11.43708 -69.67139 37939 ft 439 kts 219°
2026-04-26 23:43 11.39070 -69.71207 37936 ft 440 kts 220°
2026-04-26 23:43 11.34579 -69.75410 37940 ft 440 kts 221°
2026-04-26 23:44 11.30084 -69.79650 37934 ft 440 kts 221°
2026-04-26 23:44 11.25568 -69.83877 37933 ft 441 kts 220°
2026-04-26 23:45 11.21063 -69.88073 37936 ft 441 kts 220°
2026-04-26 23:45 11.16528 -69.92294 37938 ft 442 kts 220°
2026-04-26 23:46 11.11980 -69.96527 37945 ft 442 kts 220°
2026-04-26 23:46 11.07425 -70.00765 37937 ft 443 kts 220°
2026-04-26 23:47 11.02898 -70.04978 37940 ft 444 kts 220°
2026-04-26 23:47 10.98339 -70.09224 37944 ft 444 kts 220°
2026-04-26 23:48 10.93775 -70.13475 37950 ft 445 kts 221°
2026-04-26 23:48 10.89208 -70.17728 37951 ft 445 kts 220°
2026-04-26 23:49 10.84631 -70.21987 37958 ft 445 kts 221°
2026-04-26 23:49 10.80056 -70.26242 37964 ft 446 kts 221°
2026-04-26 23:50 10.75505 -70.30475 37950 ft 447 kts 221°
2026-04-26 23:50 10.70912 -70.34744 37960 ft 447 kts 221°
2026-04-26 23:51 10.66333 -70.39038 37957 ft 448 kts 221°
2026-04-26 23:51 10.61748 -70.43337 37967 ft 448 kts 220°
2026-04-26 23:52 10.57130 -70.47598 37965 ft 448 kts 220°
2026-04-26 23:52 10.52531 -70.51839 37962 ft 449 kts 220°
2026-04-26 23:53 10.47908 -70.56110 37964 ft 449 kts 220°
2026-04-26 23:53 10.43266 -70.60401 37956 ft 449 kts 220°
2026-04-26 23:54 10.38641 -70.64674 37958 ft 449 kts 220°
2026-04-26 23:54 10.34038 -70.68924 37951 ft 450 kts 220°
2026-04-26 23:55 10.29409 -70.73203 37953 ft 450 kts 221°
2026-04-26 23:55 10.25560 -70.76768 37949 ft 450 kts 221°
2026-04-26 23:56 10.20934 -70.81051 37957 ft 450 kts 221°
2026-04-26 23:56 10.15546 -70.86036 37942 ft 450 kts 221°
2026-04-26 23:57 10.11697 -70.89594 37937 ft 450 kts 220°
2026-04-26 23:57 10.07061 -70.93871 37932 ft 449 kts 220°
2026-04-26 23:58 10.02429 -70.98143 37926 ft 449 kts 220°
2026-04-26 23:58 9.97798 -71.02413 37933 ft 449 kts 220°
2026-04-26 23:59 9.93202 -71.06650 37916 ft 449 kts 220°
2026-04-26 23:59 9.88585 -71.10906 37918 ft 449 kts 220°
2026-04-27 00:00 9.83960 -71.15167 37910 ft 449 kts 220°
2026-04-27 00:00 9.79329 -71.19431 37909 ft 449 kts 220°
2026-04-27 00:01 9.74736 -71.23658 37908 ft 449 kts 220°
2026-04-27 00:01 9.70107 -71.27918 37905 ft 449 kts 220°
2026-04-27 00:02 9.65469 -71.32186 37909 ft 450 kts 220°
2026-04-27 00:02 9.60828 -71.36455 37904 ft 450 kts 220°
2026-04-27 00:03 9.56187 -71.40722 37922 ft 451 kts 220°
2026-04-27 00:03 9.51567 -71.44968 37922 ft 451 kts 220°
2026-04-27 00:04 9.46904 -71.49252 37912 ft 452 kts 220°
2026-04-27 00:04 9.42234 -71.53542 37911 ft 452 kts 220°
2026-04-27 00:05 9.37565 -71.57828 37902 ft 452 kts 220°
2026-04-27 00:05 9.32901 -71.62109 37909 ft 452 kts 220°
2026-04-27 00:06 9.28261 -71.66366 37901 ft 451 kts 220°
2026-04-27 00:06 9.23611 -71.70630 37898 ft 450 kts 220°
2026-04-27 00:07 9.18964 -71.74890 37905 ft 449 kts 220°
2026-04-27 00:07 9.14369 -71.79101 37907 ft 448 kts 220°
2026-04-27 00:08 9.09741 -71.83341 37905 ft 447 kts 220°
2026-04-27 00:08 9.05130 -71.87564 37902 ft 446 kts 220°
2026-04-27 00:09 9.00533 -71.91772 37899 ft 445 kts 220°
2026-04-27 00:09 8.95644 -71.95502 37912 ft 441 kts 208°
2026-04-27 00:10 8.90255 -71.98491 37900 ft 441 kts 207°
2026-04-27 00:10 8.84859 -72.01452 37902 ft 441 kts 207°
2026-04-27 00:11 8.79487 -72.04438 37902 ft 441 kts 208°
2026-04-27 00:11 8.74148 -72.07428 37902 ft 441 kts 208°
2026-04-27 00:12 8.68768 -72.10445 37907 ft 442 kts 208°
2026-04-27 00:12 8.63377 -72.13466 37914 ft 444 kts 208°
2026-04-27 00:13 8.57988 -72.16485 37916 ft 445 kts 208°
2026-04-27 00:13 8.52554 -72.19527 37923 ft 446 kts 208°
2026-04-27 00:14 8.47145 -72.22555 37916 ft 447 kts 208°
2026-04-27 00:14 8.41700 -72.25602 37931 ft 447 kts 208°
2026-04-27 00:15 8.36247 -72.28651 37927 ft 448 kts 208°
2026-04-27 00:15 8.30788 -72.31704 37924 ft 448 kts 208°
2026-04-27 00:16 8.25358 -72.34740 37938 ft 448 kts 208°
2026-04-27 00:16 8.19900 -72.37787 37948 ft 448 kts 208°
2026-04-27 00:17 8.14353 -72.40662 37955 ft 448 kts 206°
2026-04-27 00:17 8.08766 -72.43479 37961 ft 448 kts 206°
2026-04-27 00:18 8.03193 -72.46326 37966 ft 448 kts 206°
2026-04-27 00:18 7.97663 -72.49163 37973 ft 448 kts 207°
2026-04-27 00:19 7.92610 -72.52853 37968 ft 450 kts 223°
2026-04-27 00:19 7.88684 -72.57793 37971 ft 452 kts 234°
2026-04-27 00:20 7.85104 -72.63031 37972 ft 453 kts 234°
2026-04-27 00:20 7.81542 -72.68230 37984 ft 453 kts 234°
2026-04-27 00:21 7.77926 -72.73445 38007 ft 453 kts 233°
2026-04-27 00:21 7.74288 -72.78661 38038 ft 454 kts 233°
2026-04-27 00:22 7.70646 -72.83874 38045 ft 455 kts 233°
2026-04-27 00:22 7.67023 -72.89059 38049 ft 455 kts 233°
2026-04-27 00:23 7.63369 -72.94289 38051 ft 456 kts 234°
2026-04-27 00:23 7.59709 -72.99526 38045 ft 456 kts 233°
2026-04-27 00:24 7.56069 -73.04734 38042 ft 457 kts 233°
2026-04-27 00:24 7.52397 -73.09986 38027 ft 457 kts 233°
2026-04-27 00:25 7.48732 -73.15224 38013 ft 457 kts 233°
2026-04-27 00:25 7.45067 -73.20461 38003 ft 456 kts 233°
2026-04-27 00:26 7.41405 -73.25693 38002 ft 456 kts 233°
2026-04-27 00:26 7.37771 -73.30883 37990 ft 456 kts 233°
2026-04-27 00:27 7.34109 -73.36110 37986 ft 456 kts 233°
2026-04-27 00:27 7.30454 -73.41327 37976 ft 455 kts 233°
2026-04-27 00:28 7.26798 -73.46542 37962 ft 455 kts 233°
2026-04-27 00:28 7.23171 -73.51716 37954 ft 454 kts 233°
2026-04-27 00:29 7.19520 -73.56921 37921 ft 454 kts 233°
2026-04-27 00:29 7.15874 -73.62118 37903 ft 454 kts 233°
2026-04-27 00:30 7.12225 -73.67318 37881 ft 454 kts 233°
2026-04-27 00:30 7.08599 -73.72484 37861 ft 454 kts 233°
2026-04-27 00:31 7.04949 -73.77682 37860 ft 454 kts 233°
2026-04-27 00:31 7.01455 -73.82985 37856 ft 455 kts 238°
2026-04-27 00:32 6.98355 -73.88546 37856 ft 455 kts 239°
2026-04-27 00:32 6.95292 -73.94135 37880 ft 455 kts 239°
2026-04-27 00:33 6.92205 -73.99698 37913 ft 456 kts 239°
2026-04-27 00:33 6.89108 -74.05232 37941 ft 456 kts 239°
2026-04-27 00:34 6.85983 -74.10803 37973 ft 456 kts 239°
2026-04-27 00:34 6.82860 -74.16370 37990 ft 457 kts 239°
2026-04-27 00:35 6.79745 -74.21924 37994 ft 457 kts 239°
2026-04-27 00:35 6.76616 -74.27502 38001 ft 458 kts 239°
2026-04-27 00:36 6.73477 -74.33095 38014 ft 458 kts 239°
2026-04-27 00:36 6.70337 -74.38688 38021 ft 459 kts 239°
2026-04-27 00:37 6.67213 -74.44251 37707 ft 464 kts 239°
2026-04-27 00:37 6.65621 -74.47085 37152 ft 464 kts 239°
2026-04-27 00:37 6.64038 -74.49905 36530 ft 462 kts 239°
2026-04-27 00:38 6.62454 -74.52725 35923 ft 462 kts 239°
2026-04-27 00:38 6.60938 -74.55573 35314 ft 462 kts 244°
2026-04-27 00:38 6.59732 -74.58603 34495 ft 468 kts 248°
2026-04-27 00:38 6.58672 -74.61713 33700 ft 472 kts 250°
2026-04-27 00:39 6.57653 -74.64856 32890 ft 474 kts 250°
2026-04-27 00:39 6.56622 -74.68020 32100 ft 475 kts 250°
2026-04-27 00:39 6.55581 -74.71135 31302 ft 477 kts 250°
2026-04-27 00:39 6.54497 -74.74304 30440 ft 479 kts 250°
2026-04-27 00:40 6.53396 -74.77471 29442 ft 482 kts 249°
2026-04-27 00:40 6.52274 -74.80656 28616 ft 481 kts 248°
2026-04-27 00:40 6.50840 -74.83654 27976 ft 473 kts 237°
2026-04-27 00:40 6.48892 -74.86291 27331 ft 466 kts 228°
2026-04-27 00:41 6.46618 -74.88585 26655 ft 461 kts 220°
2026-04-27 00:41 6.44045 -74.90496 25990 ft 457 kts 214°
2026-04-27 00:41 6.41438 -74.92311 25354 ft 454 kts 214°
2026-04-27 00:41 6.38892 -74.94089 24727 ft 450 kts 214°
2026-04-27 00:42 6.36299 -74.95911 24100 ft 447 kts 215°
2026-04-27 00:42 6.33791 -74.97686 23441 ft 444 kts 215°
2026-04-27 00:42 6.31274 -74.99474 22755 ft 441 kts 215°
2026-04-27 00:42 6.28787 -75.01245 22147 ft 436 kts 215°
2026-04-27 00:43 6.27118 -75.02435 21748 ft 432 kts 215°
2026-04-27 00:43 6.24712 -75.04150 21153 ft 428 kts 215°
2026-04-27 00:43 6.22293 -75.05875 20553 ft 424 kts 215°
2026-04-27 00:43 6.19895 -75.07584 19965 ft 420 kts 215°
2026-04-27 00:44 6.17520 -75.09276 19397 ft 417 kts 215°
2026-04-27 00:44 6.15161 -75.10956 18846 ft 413 kts 215°
2026-04-27 00:44 6.12818 -75.12624 18265 ft 410 kts 215°
2026-04-27 00:44 6.10501 -75.14274 17651 ft 406 kts 215°
2026-04-27 00:45 6.08211 -75.15904 17068 ft 402 kts 215°
2026-04-27 00:45 6.05938 -75.17522 16695 ft 393 kts 215°
2026-04-27 00:45 6.03780 -75.19058 16596 ft 377 kts 215°
2026-04-27 00:45 6.01679 -75.20553 16512 ft 363 kts 215°
2026-04-27 00:46 5.99650 -75.21996 16427 ft 349 kts 215°
2026-04-27 00:46 5.97701 -75.23383 16349 ft 337 kts 215°
2026-04-27 00:46 5.95818 -75.24723 16214 ft 327 kts 216°
2026-04-27 00:46 5.93973 -75.26036 15944 ft 322 kts 215°
2026-04-27 00:47 5.92163 -75.27323 15588 ft 321 kts 215°
2026-04-27 00:47 5.90333 -75.28625 15235 ft 320 kts 216°
2026-04-27 00:47 5.88688 -75.30116 14860 ft 319 kts 235°
2026-04-27 00:47 5.87753 -75.32088 14518 ft 309 kts 256°
2026-04-27 00:48 5.87547 -75.34199 14191 ft 301 kts 269°
2026-04-27 00:48 5.87549 -75.36278 13825 ft 294 kts 270°
2026-04-27 00:48 5.87558 -75.38293 13446 ft 288 kts 270°
2026-04-27 00:48 5.87669 -75.40281 13052 ft 283 kts 285°
2026-04-27 00:49 5.88672 -75.41886 12940 ft 267 kts 322°
2026-04-27 00:49 5.90303 -75.42534 12882 ft 252 kts 354°
2026-04-27 00:49 5.92118 -75.42514 12156 ft 268 kts
2026-04-27 00:49 5.93978 -75.42376 11440 ft 265 kts
2026-04-27 00:50 5.95799 -75.42294 10777 ft 258 kts
2026-04-27 00:50 5.99160 -75.42245 10035 ft 224 kts 360°
2026-04-27 00:50 6.00662 -75.42253 9734 ft 209 kts 360°
2026-04-27 00:51 6.02057 -75.42259 9473 ft 198 kts 360°
2026-04-27 00:51 6.03398 -75.42264 9241 ft 186 kts 360°
2026-04-27 00:51 6.04627 -75.42268 9009 ft 170 kts 360°
2026-04-27 00:51 6.05774 -75.42272 8795 ft 162 kts 360°
2026-04-27 00:52 6.06888 -75.42277 8581 ft 157 kts 360°
2026-04-27 00:52 6.07954 -75.42281 8382 ft 154 kts 360°
2026-04-27 00:52 6.09031 -75.42284 8188 ft 155 kts
2026-04-27 00:52 6.10114 -75.42288 7970 ft 155 kts
2026-04-27 00:53 6.11184 -75.42295 7706 ft 152 kts 359°
2026-04-27 00:53 6.12224 -75.42304 7494 ft 147 kts 359°
2026-04-27 00:53 6.13256 -75.42303 7287 ft 149 kts
2026-04-27 00:53 6.14299 -75.42309 7130 ft 150 kts 359°
2026-04-27 00:54 6.15328 -75.42311 6978 ft 144 kts 359°
2026-04-27 00:54 6.15957 -75.42310 6982 ft 37 kts 359°
2026-04-27 00:54 6.16052 -75.42311 6982 ft 14 kts 360°
2026-04-27 00:54 6.16195 -75.42313 6984 ft 26 kts
2026-04-27 00:55 6.16411 -75.42312 6990 ft 35 kts 359°
2026-04-27 00:55 6.16659 -75.42315 7000 ft 37 kts 360°
2026-04-27 00:55 6.16900 -75.42324 7009 ft 31 kts 349°
2026-04-27 00:55 6.17073 -75.42390 7018 ft 23 kts 329°
2026-04-27 00:56 6.17111 -75.42413 7017 ft 0 kts 330°
2026-04-27 00:56 6.17113 -75.42414 7019 ft 2 kts 330°
2026-04-27 00:56 6.17138 -75.42428 7018 ft 5 kts 330°
2026-04-27 00:57 6.17173 -75.42449 7019 ft 6 kts 327°
2026-04-27 00:57 6.17191 -75.42492 7016 ft 9 kts 275°
2026-04-27 00:57 6.17191 -75.42570 7016 ft 13 kts 271°
2026-04-27 00:57 6.17238 -75.42618 7017 ft 9 kts 350°
2026-04-27 00:58 6.17297 -75.42638 7016 ft 9 kts 316°
2026-04-27 00:58 6.17333 -75.42688 7016 ft 9 kts 305°
2026-04-27 00:58 6.17349 -75.42711 7015 ft 2 kts 305°
2026-04-27 00:58 6.17355 -75.42722 7018 ft 2 kts 294°
2026-04-27 00:59 6.17350 -75.42736 7015 ft 3 kts 232°
2026-04-27 00:59 6.17324 -75.42755 7016 ft 9 kts 213°
2026-04-27 00:59 6.17303 -75.42769 7017 ft 1 kts 213°
2026-04-27 00:59 6.17299 -75.42772 7019 ft 0 kts 213°